Regional Weather Roundup
Issued by NWS

Home | Current Version | Previous Version | Text Only | Print | Product List | Glossary Off
Versions: 1 2 3 4 5 6 7 8 9 10 11 12 13 14 15 16 17 18 19 20 21 22 23 24 25 26 27 28 29 30 31 32 33 34 35 36 37 38 39 40 41 42 43 44 45 46 47 48 49 50

000
ASUS45 KTFX 011904
RWRMT
MONTANA HOURLY WEATHER ROUNDUP
NATIONAL WEATHER SERVICE GREAT FALLS MT
104 PM MDT WED OCT 1 2014

NOTE: "FAIR" INDICATES FEW OR NO CLOUDS BELOW 12000 FEET WITH NO
SIGNIFICANT WEATHER AND/OR OBSTRUCTIONS TO VISIBILITY.

* THESE STATIONS ARE NOT UNDER NWS QUALITY CONTROL. THEY DO NOT
   REPORT WEATHER SUCH AS PRECIPITATION OR FOG.

MTZ001>007-043-012000-
WEST OF THE DIVIDE
CITY           SKY/WX    TMP DP  RH WIND       PRES   REMARKS
KALISPELL      CLOUDY    55  37  51 NW6       30.03F
MISSOULA       CLOUDY    54  34  47 W7        30.09F
BUTTE          PTCLDY    48  27  44 W14G23    30.07F
MULLAN PASS    CLOUDY    36  34  92 VRB5      30.10S WCI  32
* ESSEX        N/A       46  43  89 SW1        N/A
* LINCOLN      N/A       47  34  61 W6G14      N/A
* LOOKOUT PASS N/A       42  37  83 NE6        N/A
* POLSON       N/A       53  34  49 S3         N/A
* RONAN APT    SUNNY     54  36  51 SW9        N/A
* SEELEY LAKE  N/A       51  34  52 SW7G14     N/A
* THOMP F APT  SUNNY     45  29  54 W7G17      N/A
* YAAK HILL    N/A       56  36  47 SW1        N/A
$$

MTZ008-052>055-012000-
SOUTHWEST MONTANA
CITY           SKY/WX    TMP DP  RH WIND       PRES   REMARKS
BOZEMAN        CLOUDY    46  36  68 CALM      30.06F
DILLON         PTSUNNY   48  27  44 CALM      30.06F
W YELLOWSTONE  PTSUNNY   41  27  58 NW8       30.06S
* THREE FORKS  PTCLDY    52  52 100 N/A        N/A
* BOULDER HILL N/A       48  21  34 W4G11      N/A
* MONIDA PASS  N/A       41  25  53 NW14G23    N/A
* RAYNOLDS PAS N/A       39  38  96 NW11G19    N/A   WCI  32
* WHITEHALL    N/A       56  32  40 NW5G16     N/A
* WISE RIVER   N/A       47  27  46 NW14G21    N/A
$$

MTZ009>010-012-014-046-048-049-054-012000-
EAST SLOPES AND CENTRAL MONTANA
CITY           SKY/WX    TMP DP  RH WIND       PRES   REMARKS
CUT BANK       PTCLDY    57  36  46 W15G25    29.90F
GREAT FALLS    PTSUNNY   55  36  49 SW16      29.94F
HELENA         PTSUNNY   57  30  36 W20G25    30.01F
MALMSTROM AFB  SUNNY     57  36  46 SW17G23   29.96F
* CONRAD       SUNNY     59  37  44 SW11G18    N/A
* DEARBORN     N/A       56  33  42 S15G20     N/A
* EAST GLACIER N/A       47  33  58 W22G37     N/A
* MONARCH      N/A       47  26  44 SW10       N/A
* PENDROY      N/A       55  26  33 W13G23     N/A
* ROGERS PASS  N/A       45  32  60 NE8G17     N/A
* SAINT MARY   N/A       48  35  61 SW10G23    N/A
* SWEET GRASS  N/A       54  31  42 SW14       N/A
$$

MTZ011-013-016-021-035-040-045-047-050-051-012000-
NORTH CENTRAL MONTANA
CITY           SKY/WX    TMP DP  RH WIND       PRES   REMARKS
HAVRE          PTCLDY    61  36  39 W15       29.89F
LEWISTOWN      SUNNY     54  36  51 NW13G22   29.95F
* CHESTER      N/A       56  33  42 W9G18      N/A
* DENTON       N/A       55  31  40 W11G16     N/A
* JUDITH GAP   N/A       51  27  39 VRB8G17    N/A
* LOMA         N/A       58  36  44 W5G12      N/A
$$

MTZ017>020-022>027-061-062-012000-
NORTHEAST MONTANA
CITY           SKY/WX    TMP DP  RH WIND       PRES   REMARKS
GLASGOW        CLOUDY    55  43  64 NW18      29.82F
GLENDIVE       PTSUNNY   54  46  74 NW22G30   29.83S
JORDAN         PTCLDY    57  39  51 NW23G29   29.86F
SIDNEY         CLOUDY    55  46  72 W17G23    29.79S
WOLF POINT     CLOUDY    57  45  64 W21G29    29.80S
* BEAVER HILL  N/A       52  46  80 W21G28     N/A
* CIRCLE       N/A       52  47  83 W11G17     N/A
* LINDSAY DVD  N/A       49  45  86 W18G23     N/A
* NAVAJO       N/A       52  45  77 NW24G29    N/A
$$

MTZ028>042-056>058-012000-
SOUTHCENTRAL AND SOUTHEAST MONTANA
CITY           SKY/WX    TMP DP  RH WIND       PRES   REMARKS
BAKER          CLOUDY    48  45  89 W18G29    29.85S
BILLINGS       PTCLDY    61  34  36 NW13G23   29.95S
LIVINGSTON     PTSUNNY   52  36  55 W17       30.02F
MILES CITY     PTSUNNY   61  37  41 NW20      29.87S
* LAUREL APT   PTCLDY    55  30  39 W10G17     N/A
* ROUNDUP APT  PTCLDY    57  32  39 W9         N/A
* ALZADA       N/A       50  41  71 W11        N/A
* HYSHAM       N/A       55  30  39 NW8G23     N/A
* LAME DEER    N/A       49  36  61 NW11G17    N/A
* REED POINT   N/A       55  33  43 W22G28     N/A
* ROSCOE HILL  N/A       53  20  27 W6G15      N/A
$$

REGIONAL REPORTS...DAKOTAS
CITY           SKY/WX    TMP DP  RH WIND       PRES   REMARKS
WILLISTON      CLOUDY    57  46  67 NW21G26   29.74R
DICKINSON      CLOUDY    54  46  74 W16       29.76S
BEACH          N/A       52  48  86 W22       29.82R
CROSBY         CLOUDY    52  52 100 NW15G29   29.69R
TIOGA          CLOUDY    52  52 100 W17G29    29.73R
WATFORD CITY   PTSUNNY   55  48  77 W17G28    29.73R
BISMARCK       CLOUDY    61  48  62 W13G23    29.73S
GRAND FORKS    PTSUNNY   66  52  61 SW18G25   29.58S
FARGO          PTSUNNY   70  54  57 SW17      29.63S
BUFFALO SD     CLOUDY    52  45  77 NW23      29.81R
RAPID CITY     CLOUDY    55  43  64 N18       29.87S
$$

REGIONAL REPORTS...WYOMING/IDAHO/WASHINGTON
CITY           SKY/WX    TMP DP  RH WIND       PRES   REMARKS
GILLETTE       CLOUDY    48  37  66 NW16      29.94F
SHERIDAN       CLOUDY    52  37  57 NW13      29.97S
CODY           PTSUNNY   45  37  74 CALM      30.00F
YELLOWSTONE LA PTSUNNY   39  27  62 CALM      30.07F
SALMON         CLOUDY    52  34  50 CALM      30.10F
MULLAN PASS    CLOUDY    36  34  92 VRB5      30.10S WCI  32
SAND POINT     SUNNY     55  41  59 S10       30.09F
SPOKANE        PTSUNNY   55  37  51 SW14      30.11F

$$




USA.gov is the U.S. government's official web portal to all federal, state and local government web resources and services.